Simultaneous Nadir Overpasses (SNOs) Predictions

Prediction of SNOs between METOP-B and TERRA Satellite Orbit:

Table of predicted SNOs for the next 14.0 days since TLE Epoch: 4/13/2024
Index Date (METOP-B) Time (METOP-B) Lat,Lon (METOP-B) SZA (METOP-B ) Date (TERRA) Time (TERRA) Lat,Lon (TERRA) SZA (TERRA ) Distance(km) Time Diff (sec)
1 04/14/2024 04:12:05 -80.25, -40.55 108.62 04/14/2024 04:12:53 -80.24, -40.59 108.61 0.82 48
2 04/14/2024 05:02:41 80.38, 128.26 71.59 04/14/2024 05:02:11 80.37, 128.19 71.58 1.40 30
3 04/16/2024 19:33:00 80.28, -90.48 70.51 04/16/2024 19:33:17 80.28, -90.46 70.52 0.50 17
4 04/16/2024 20:23:36 -80.41, 78.39 109.28 04/16/2024 20:22:34 -80.41, 78.45 109.29 1.24 62
5 04/19/2024 10:03:19 80.20, 51.05 69.48 04/19/2024 10:04:23 80.20, 51.06 69.50 0.15 64
6 04/19/2024 10:53:55 -80.33,-140.08 110.30 04/19/2024 10:53:40 -80.34,-140.04 110.30 0.97 15
7 04/22/2024 01:24:14 -80.25, 1.41 111.32 04/22/2024 01:24:46 -80.25, 1.34 111.32 1.53 32
8 04/22/2024 02:14:49 80.40, 170.49 68.94 04/22/2024 02:14:03 80.40, 170.36 68.91 2.39 46



Historial Predications of SNOs between METOP-B and TERRA
